• In Germany
  • List of Countries
  • For 7 days
  • Water Temperature
  • Satellite Maps
  • Weather Map
  • Weather Widgets
  • user-avatar
    Login

    Hourly Weather Eisenstadt

    Today, 24 July, Monday

    Time Temperature Precipitation Wind Pressure Humidity
    00:00 +20°C° 0.3 mm 1 mps 722 mmHg 79%
    01:00 +20°C° 0 mm 1 mps 721 mmHg 82%
    02:00 +19°C° 0.2 mm 1 mps 721 mmHg 83%
    03:00 +19°C° 0.2 mm 1 mps 721 mmHg 84%
    04:00 +19°C° 0.2 mm 1 mps 720 mmHg 85%
    05:00 +19°C° 0.4 mm 1 mps 720 mmHg 84%
    06:00 +20°C° 0.4 mm 1 mps 719 mmHg 83%
    07:00 +21°C° 0.4 mm 1 mps 719 mmHg 82%
    08:00 +21°C° 0.6 mm 1 mps 719 mmHg 80%
    09:00 +22°C° 0.6 mm 1 mps 718 mmHg 79%
    10:00 +22°C° 0.6 mm 1 mps 718 mmHg 77%
    11:00 +23°C° 0.6 mm 2 mps 717 mmHg 74%
    12:00 +24°C° 0.6 mm 2 mps 717 mmHg 72%
    13:00 +24°C° 0.6 mm 2 mps 717 mmHg 70%
    14:00 +24°C° 1.1 mm 3 mps 716 mmHg 72%
    15:00 +22°C° 1.1 mm 4 mps 716 mmHg 74%
    16:00 +22°C° 1.1 mm 4 mps 715 mmHg 76%
    17:00 +20°C° 0.5 mm 4 mps 715 mmHg 78%
    18:00 +19°C° 0.5 mm 4 mps 715 mmHg 80%
    19:00 +17°C° 0.5 mm 5 mps 715 mmHg 82%
    20:00 +16°C° 0.4 mm 5 mps 715 mmHg 82%
    21:00 +16°C° 0.4 mm 5 mps 715 mmHg 83%
    22:00 +16°C° 0.4 mm 6 mps 715 mmHg 84%
    23:00 +15°C° 0.7 mm 5 mps 716 mmHg 86%

    Tomorrow, 25 July, Tuesday

    Time Temperature Precipitation Wind Pressure Humidity
    00:00 +15°C° 0.7 mm 4 mps 716 mmHg 88%
    01:00 +14°C° 0.7 mm 3 mps 716 mmHg 90%
    02:00 +14°C° 0.1 mm 3 mps 716 mmHg 88%
    03:00 +14°C° 0.1 mm 4 mps 716 mmHg 86%
    04:00 +14°C° 0.1 mm 4 mps 715 mmHg 85%
    05:00 +14°C° 0 mm 4 mps 715 mmHg 81%
    06:00 +15°C° 0 mm 5 mps 716 mmHg 78%
    07:00 +15°C° 0 mm 5 mps 716 mmHg 74%
    08:00 +16°C° 0 mm 5 mps 716 mmHg 66%
    09:00 +19°C° 0 mm 6 mps 716 mmHg 58%
    10:00 +20°C° 0 mm 6 mps 716 mmHg 50%
    11:00 +21°C° 0 mm 6 mps 716 mmHg 46%
    12:00 +22°C° 0 mm 6 mps 716 mmHg 43%
    13:00 +23°C° 0 mm 6 mps 715 mmHg 40%
    14:00 +23°C° 0 mm 6 mps 715 mmHg 40%
    15:00 +23°C° 0 mm 5 mps 715 mmHg 41%
    16:00 +23°C° 0 mm 5 mps 715 mmHg 41%
    17:00 +21°C° 0 mm 5 mps 715 mmHg 47%
    18:00 +20°C° 0 mm 4 mps 716 mmHg 52%
    19:00 +19°C° 0 mm 4 mps 716 mmHg 57%
    20:00 +17°C° 0 mm 3 mps 716 mmHg 61%
    21:00 +16°C° 0 mm 3 mps 716 mmHg 66%
    22:00 +14°C° 0 mm 3 mps 716 mmHg 70%
    23:00 +13°C° 0 mm 3 mps 716 mmHg 72%

    Day after tomorrow, 26 July, Wednesday

    Time Temperature Precipitation Wind Pressure Humidity
    00:00 +14°C° 0 mm 2 mps 716 mmHg 74%
    01:00 +13°C° 0 mm 2 mps 716 mmHg 75%
    02:00 +13°C° 0.2 mm 2 mps 716 mmHg 76%
    03:00 +13°C° 0.2 mm 2 mps 716 mmHg 77%
    04:00 +13°C° 0.2 mm 1 mps 716 mmHg 78%
    05:00 +14°C° 0.2 mm 2 mps 716 mmHg 75%
    06:00 +15°C° 0.2 mm 2 mps 716 mmHg 71%
    07:00 +16°C° 0.2 mm 2 mps 716 mmHg 68%
    08:00 +18°C° 0.1 mm 2 mps 716 mmHg 65%
    09:00 +19°C° 0.1 mm 3 mps 716 mmHg 61%
    10:00 +20°C° 0.1 mm 3 mps 716 mmHg 58%
    11:00 +20°C° 0.7 mm 3 mps 716 mmHg 59%
    12:00 +21°C° 0.7 mm 3 mps 716 mmHg 60%
    13:00 +21°C° 0.7 mm 3 mps 716 mmHg 61%
    14:00 +20°C° 1.2 mm 3 mps 716 mmHg 65%
    15:00 +19°C° 1.2 mm 3 mps 716 mmHg 69%
    16:00 +18°C° 1.2 mm 3 mps 716 mmHg 73%
    17:00 +17°C° 1 mm 3 mps 716 mmHg 78%
    18:00 +16°C° 1 mm 3 mps 716 mmHg 82%
    19:00 +15°C° 1 mm 2 mps 717 mmHg 86%
    20:00 +14°C° 0.1 mm 2 mps 717 mmHg 87%
    21:00 +14°C° 0.1 mm 2 mps 717 mmHg 87%
    22:00 +13°C° 0.1 mm 2 mps 718 mmHg 88%
    23:00 +13°C° 0 mm 2 mps 717 mmHg 88%

    27 July, Thursday

    Time Temperature Precipitation Wind Pressure Humidity
    00:00 +13°C° 0 mm 2 mps 717 mmHg 89%
    01:00 +12°C° 0 mm 2 mps 717 mmHg 89%
    02:00 +12°C° 0.1 mm 2 mps 717 mmHg 89%
    03:00 +12°C° 0.1 mm 2 mps 717 mmHg 90%
    04:00 +12°C° 0.1 mm 2 mps 717 mmHg 90%
    05:00 +13°C° 0.4 mm 2 mps 718 mmHg 90%
    06:00 +13°C° 0.4 mm 2 mps 718 mmHg 89%
    07:00 +14°C° 0.4 mm 2 mps 718 mmHg 89%
    08:00 +15°C° 0.3 mm 2 mps 718 mmHg 87%
    09:00 +14°C° 0.3 mm 3 mps 719 mmHg 85%
    10:00 +16°C° 0.3 mm 3 mps 719 mmHg 84%
    11:00 +18°C° 0 mm 3 mps 719 mmHg 74%
    12:00 +19°C° 0 mm 4 mps 719 mmHg 64%
    13:00 +21°C° 0 mm 4 mps 719 mmHg 54%
    14:00 +22°C° 0 mm 4 mps 719 mmHg 52%
    15:00 +22°C° 0 mm 4 mps 719 mmHg 49%
    16:00 +22°C° 0 mm 4 mps 719 mmHg 47%
    17:00 +21°C° 0.1 mm 4 mps 719 mmHg 56%
    18:00 +19°C° 0.1 mm 3 mps 719 mmHg 64%
    19:00 +18°C° 0.1 mm 3 mps 719 mmHg 72%
    20:00 +17°C° 0.2 mm 3 mps 719 mmHg 75%
    21:00 +17°C° 0.2 mm 2 mps 720 mmHg 78%
    22:00 +16°C° 0.2 mm 2 mps 720 mmHg 80%
    23:00 +16°C° 0 mm 2 mps 720 mmHg 81%

    28 July, Friday

    Time Temperature Precipitation Wind Pressure Humidity
    00:00 +15°C° 0 mm 1 mps 720 mmHg 82%
    01:00 +15°C° 0 mm 1 mps 720 mmHg 83%
    02:00 +15°C° 0 mm 1 mps 720 mmHg 84%
    03:00 +15°C° 0 mm 1 mps 720 mmHg 85%
    04:00 +14°C° 0 mm 1 mps 720 mmHg 86%
    05:00 +16°C° 0 mm 2 mps 720 mmHg 82%
    06:00 +17°C° 0 mm 2 mps 721 mmHg 79%
    07:00 +18°C° 0 mm 2 mps 721 mmHg 75%
    08:00 +20°C° 0.1 mm 2 mps 721 mmHg 68%
    09:00 +23°C° 0.1 mm 2 mps 721 mmHg 61%
    10:00 +25°C° 0.1 mm 2 mps 722 mmHg 55%
    11:00 +26°C° 0.5 mm 3 mps 721 mmHg 53%
    12:00 +26°C° 0.5 mm 3 mps 721 mmHg 51%
    13:00 +27°C° 0.5 mm 3 mps 721 mmHg 50%
    14:00 +26°C° 0.3 mm 3 mps 721 mmHg 53%
    15:00 +25°C° 0.3 mm 3 mps 721 mmHg 56%
    16:00 +24°C° 0.3 mm 3 mps 721 mmHg 59%
    17:00 +22°C° 0.3 mm 3 mps 721 mmHg 64%
    18:00 +21°C° 0.3 mm 2 mps 722 mmHg 70%
    19:00 +20°C° 0.3 mm 2 mps 722 mmHg 75%
    20:00 +19°C° 0 mm 2 mps 722 mmHg 77%
    21:00 +18°C° 0 mm 2 mps 723 mmHg 79%
    22:00 +17°C° 0 mm 3 mps 723 mmHg 81%
    23:00 +17°C° 0 mm 3 mps 724 mmHg 82%

    29 July, Saturday

    Time Temperature Precipitation Wind Pressure Humidity
    00:00 +16°C° 0 mm 3 mps 724 mmHg 82%
    01:00 +16°C° 0 mm 3 mps 724 mmHg 83%
    02:00 +14°C° 0 mm 3 mps 724 mmHg 84%
    03:00 +15°C° 0 mm 2 mps 724 mmHg 85%
    04:00 +14°C° 0 mm 2 mps 724 mmHg 86%
    05:00 +16°C° 0 mm 2 mps 725 mmHg 81%
    06:00 +17°C° 0 mm 2 mps 725 mmHg 76%
    07:00 +18°C° 0 mm 2 mps 725 mmHg 71%
    08:00 +20°C° 0 mm 2 mps 726 mmHg 63%
    09:00 +23°C° 0 mm 2 mps 726 mmHg 55%
    10:00 +25°C° 0 mm 2 mps 726 mmHg 47%
    11:00 +26°C° 0 mm 2 mps 726 mmHg 46%
    12:00 +26°C° 0 mm 2 mps 725 mmHg 46%
    13:00 +27°C° 0 mm 1 mps 725 mmHg 45%
    14:00 +27°C° 0.1 mm 1 mps 725 mmHg 46%
    15:00 +27°C° 0.1 mm 1 mps 725 mmHg 47%
    16:00 +27°C° 0.1 mm 1 mps 724 mmHg 48%
    17:00 +26°C° 0.1 mm 1 mps 724 mmHg 54%
    18:00 +25°C° 0.1 mm 1 mps 724 mmHg 59%
    19:00 +23°C° 0.1 mm 1 mps 724 mmHg 65%
    20:00 +22°C° 0.1 mm 1 mps 724 mmHg 67%
    21:00 +21°C° 0.1 mm 1 mps 724 mmHg 70%
    22:00 +20°C° 0.1 mm 1 mps 725 mmHg 72%
    23:00 +20°C° 0 mm 1 mps 725 mmHg 73%
    Show more